Home > Weather > Kuujjuaq > Past weeks

Flag for Canada Past Weather in Kuujjuaq, Quebec, Canada — Yesterday and Last 2 Weeks

Now
48 °F

Light rain. Overcast.


Feels Like: 45 °F
Forecast: 47 / 52 °F
Wind: 7 mph from Southwest

Location: Kuujjuaq

Current Time: Aug 25, 2016 at 4:22:07 AM

Latest Report: Aug 25, 2016 at 4:00 AM


Visibility: 10 mi

Pressure: 29.57 "Hg

Humidity: 100%

Dew Point: 48 °F

Location of KuujjuaqLocation

Past Weather in Kuujjuaq — Graph

°F

Kuujjuaq Temperature Yesterday

Maximum temperature yesterday: 54 °F (at 4:00 AM)
Minimum temperature yesterday: 46 °F (at 7:00 AM)
Average temperature yesterday: 50 °F

High & Low Weather Summary for the Past Weeks

 TemperatureHumidityPressure
High73 °F (Aug 16, 3:00 PM)100% (Aug 12, 3:00 AM)30.01 "Hg (Aug 12, 3:00 AM)
Low37 °F (Aug 15, 5:00 AM)29% (Aug 19, 2:00 PM)29.25 "Hg (Aug 22, 4:00 AM)
Average55 °F76%29.76 "Hg
* Reported Aug 10 3:00 AM — Aug 25 3:00 AM, Kuujjuaq, Weather by CustomWeather, © 2016

Note: Actual official high and low records may vary slightly from our data, if they occured in-between our weather recording intervals... More about our weather records

Advertising

Kuujjuaq Weather History for the Previous 24 Hours

Scroll right to see more
 ConditionsComfort  
Time TempWeatherWind HumidityBarometerVisibility
3:00 AM
Thu, Aug 25
48 °FPassing clouds.7 mph94%29.57 "Hg15 mi
2:00 AM48 °FLight rain. Overcast.7 mph100%29.57 "Hg8 mi
1:00 AM50 °FLight rain. Mostly cloudy.7 mph94%29.55 "Hg15 mi
12:00 AM50 °FLight rain. Mostly cloudy.2 mph94%29.55 "Hg15 mi
11:00 PM
Wed, Aug 24
50 °FLight rain. Overcast.9 mph94%29.54 "Hg15 mi
10:00 PM50 °FLight rain. Passing clouds.7 mph94%29.53 "Hg15 mi
9:00 PM50 °FLight rain. Passing clouds.10 mph94%29.51 "Hg15 mi
8:00 PM50 °FSprinkles. Partly sunny.10 mph94%29.49 "Hg12 mi
7:00 PM50 °FSprinkles. Mostly cloudy.15 mph94%29.47 "Hg12 mi
6:00 PM50 °FSprinkles. Cloudy.14 mph94%29.46 "Hg12 mi
5:50 PM50 °FLots of rain. Cloudy.17 mph94%29.46 "Hg8 mi
5:00 PM52 °FSprinkles. Cloudy.13 mph88%29.46 "Hg12 mi
4:00 PM52 °FPartly sunny.14 mph88%29.45 "Hg15 mi
3:00 PM52 °FCloudy.17 mph82%29.44 "Hg15 mi
2:00 PM52 °FSprinkles. Mostly cloudy.13 mph82%29.45 "Hg12 mi
1:00 PM50 °FSprinkles. Overcast.15 mph88%29.46 "Hg12 mi
12:00 PM48 °FSprinkles. Cloudy.17 mph87%29.46 "Hg10 mi
11:00 AM50 °FSprinkles. More clouds than sun.12 mph76%29.46 "Hg12 mi
10:00 AM50 °FMore clouds than sun.12 mph71%29.47 "Hg15 mi
9:47 AM50 °FOvercast.12 mph71%29.47 "Hg15 mi
9:00 AM48 °FBroken clouds.9 mph82%29.48 "Hg15 mi
8:00 AM48 °FSprinkles. Broken clouds.13 mph82%29.48 "Hg15 mi
7:00 AM46 °FScattered showers. Broken clouds.16 mph82%29.48 "Hg15 mi
6:00 AM48 °FPartly cloudy.7 mph82%29.46 "Hg15 mi
5:45 AM48 °FPartly cloudy.10 mph87%29.46 "Hg15 mi
5:00 AM50 °FMostly cloudy.10 mph88%29.45 "Hg15 mi
4:00 AM54 °FLight rain. Mostly cloudy.13 mph82%29.44 "Hg15 mi
Weather by CustomWeather, © 2016

See weather overviewHow to use our weather pages